sat.trackr.live / text

‹ back to catalog

UNKNOWN

NORAD 85023

UNKNOWN UNKNOWN UNKNOWN

§ Identity

Operator
Country
Launch date
Launch site
Launch vehicle
Mass (kg)
RCS (m²)

External: N2YO · Heavens-Above

§ Orbital elements

Epoch: 2026-05-24T02:35:37.052736Z

Period
97.04 min
Inclination
99.8348°
Eccentricity
0.0004536
Mean motion
14.83961381 rev/d
Perigee alt
613.7 km
Apogee alt
620.0 km
Semi-major
6,995.0 km
B*
2.5087e-3
RAAN
200.8035°
Arg perigee
153.8216°
Mean anomaly
237.2933°
Rev number
65,284

§ Raw data

UNKNOWN1 85023U          26144.10806774  .00020857  00000+0  25087-2 0  99932 85023  99.8348 200.8035 0004536 153.8216 237.2933 14.83961381652841

JSON: /api/v1/satellites/85023 · /tle

For live sub-satellite position, see the globe view (requires WebGL).

§ Visibility from observer

Set your observer location to see the next 7 days of passes ≥ 10°. The values pass through the URL so the page stays shareable.

No JS? Fill the form by hand. The geolocation button needs JavaScript.